Temperature
4 4 4 5 5 5 5 6 6 6 6 7 7 7 7 7 7 7 7 7 7 7 7 7 7 7 7 7 7 7 7 6 6 7 7 6 6 6 6 6 6 6 6
3 4 4 4 4 5 5 5 5 5 6 6 6 6 7 7 7 7 7 7 7 7 7 7 7 7 7 7 7 6 6 6 6 6 6 6 6 6 6 6 6 6 6
3 3 3 4 4 4 4 5 5 5 5 6 6 6 6 6 6 6 6 6 6 6 6 6 7 7 6 6 6 6 6 6 6 6 6 6 6 6 5 5 5 5 5
3 3 3 3 3 4 4 4 4 4 5 5 5 5 5 6 6 6 6 6 6 6 6 6 6 6 6 6 6 6 6 5 5 5 5 5 5 5 5 5 5 5 5
2 2 2 2 3 3 3 3 4 4 4 4 4 5 5 5 5 5 5 5 5 5 5 5 5 5 5 5 5 5 5 5 5 5 5 5 4 4 4 4 4 4 4
1 1 1 2 2 2 3 3 3 3 3 4 4 4 4 4 4 4 5 5 5 5 5 5 5 5 5 5 5 5 5 4 4 4 4 4 4 4 4 4 4 3 3
1 1 1 1 1 2 2 2 2 3 3 3 3 3 3 4 4 4 4 4 4 4 5 5 5 5 5 4 4 4 4 4 4 4 4 4 4 4 4 3 3 3 3
0 0 0 1 1 1 1 1 2 2 2 3 3 3 3 3 3 3 3 3 4 4 4 4 4 4 4 4 4 4 4 4 4 3 3 4 4 3 3 3 3 3 2
-0 -0 0 0 0 0 1 1 1 1 1 2 2 2 2 2 2 3 3 3 3 3 3 3 3 4 4 3 3 3 3 3 3 3 3 3 3 3 3 2 2 2 2
-1 -1 -0 -0 -0 -0 0 0 0 0 1 1 1 1 1 2 2 2 2 2 2 3 3 3 3 3 3 3 2 3 3 3 3 3 2 2 2 2 2 2 2 1 1
-1 -1 -1 -1 -0 -0 -0 -0 -0 -0 0 0 0 0 1 1 1 1 2 2 2 2 2 2 2 2 2 2 2 2 2 2 2 2 2 2 2 2 2 1 1 1 1
-1 -1 -1 -1 -1 -1 -1 -1 -1 -0 -0 -0 -0 -0 -0 0 0 1 1 1 1 1 1 1 1 1 1 1 1 1 1 1 1 1 1 1 1 1 1 1 0 0 0
-2 -2 -1 -1 -1 -1 -1 -1 -1 -1 -1 -1 -1 -1 -1 -0 -0 -0 0 0 0 0 0 1 0 1 1 1 1 1 1 1 1 0 0 0 0 0 0 -0 -0 -1 -1
-2 -2 -2 -2 -2 -2 -2 -2 -2 -2 -2 -2 -2 -1 -1 -1 -1 -1 -1 -0 -0 -0 -0 -0 -0 -0 -0 -0 -0 0 0 -0 -0 -0 -0 -0 -1 -1 -1 -1 -1 -1 -1
-3 -3 -2 -2 -2 -2 -2 -2 -2 -2 -2 -2 -2 -2 -2 -2 -1 -1 -1 -1 -1 -1 -1 -1 -1 -1 -1 -1 -1 -1 -1 -1 -1 -1 -1 -1 -2 -2 -2 -2 -2 -2 -2
-4 -3 -3 -3 -3 -3 -3 -3 -3 -3 -3 -3 -3 -2 -2 -2 -2 -2 -2 -2 -2 -2 -2 -1 -1 -1 -1 -1 -1 -2 -2 -2 -2 -2 -2 -2 -2 -2 -3 -3 -3 -3 -3
-4 -4 -4 -4 -4 -3 -3 -3 -3 -3 -3 -3 -3 -3 -3 -3 -3 -3 -2 -2 -2 -2 -2 -2 -2 -2 -2 -2 -2 -2 -2 -2 -3 -3 -3 -3 -3 -3 -3 -3 -3 -3 -3
-5 -5 -5 -4 -4 -4 -4 -4 -4 -4 -4 -4 -3 -3 -3 -3 -3 -3 -3 -3 -3 -3 -3 -3 -3 -3 -3 -3 -3 -3 -3 -3 -3 -3 -3 -4 -4 -4 -4 -4 -4 -4 -4
-5 -5 -5 -5 -5 -5 -4 -4 -4 -4 -4 -4 -4 -4 -4 -4 -4 -4 -4 -4 -3 -3 -3 -4 -4 -3 -3 -3 -4 -4 -4 -4 -4 -4 -4 -4 -4 -4 -5 -5 -5 -5 -5
-6 -6 -6 -5 -5 -5 -5 -5 -5 -5 -5 -5 -5 -5 -5 -5 -5 -4 -4 -4 -4 -4 -4 -4 -4 -4 -4 -4 -4 -4 -4 -5 -5 -5 -5 -5 -5 -5 -5 -5 -5 -5 -5
-6 -6 -6 -6 -6 -6 -6 -6 -6 -6 -6 -6 -6 -6 -5 -6 -5 -5 -5 -5 -5 -5 -5 -5 -5 -5 -5 -5 -5 -5 -5 -5 -5 -5 -5 -5 -6 -6 -6 -6 -6 -6 -6
-7 -7 -7 -7 -7 -7 -7 -6 -6 -6 -6 -6 -6 -6 -6 -6 -6 -6 -6 -6 -6 -6 -6 -6 -6 -5 -5 -5 -5 -6 -6 -6 -6 -6 -6 -6 -6 -6 -6 -6 -6 -6 -6
-7 -7 -7 -7 -7 -7 -7 -7 -7 -7 -7 -7 -7 -7 -7 -7 -7 -7 -7 -7 -7 -7 -7 -6 -6 -6 -6 -6 -6 -6 -6 -6 -6 -6 -6 -6 -6 -6 -6 -7 -7 -7 -7
-8 -8 -8 -8 -8 -8 -8 -8 -8 -8 -8 -8 -8 -8 -8 -8 -8 -8 -7 -7 -7 -7 -7 -7 -7 -7 -7 -6 -7 -7 -7 -6 -6 -7 -7 -7 -7 -7 -7 -7 -7 -7 -7
-8 -8 -8 -8 -8 -8 -8 -8 -8 -8 -8 -8 -8 -8 -8 -8 -8 -8 -8 -8 -8 -8 -8 -7 -7 -7 -7 -7 -7 -7 -7 -7 -7 -7 -7 -7 -7 -7 -7 -7 -7 -7 -7
-9 -9 -9 -9 -9 -9 -9 -9 -9 -9 -9 -9 -9 -9 -9 -9 -9 -9 -9 -9 -9 -8 -8 -8 -8 -8 -8 -8 -7 -7 -7 -7 -7 -7 -7 -7 -7 -7 -8 -8 -8 -8 -8
Wind_Speed
2 3 3 3 3 3 3 4 3 2 3 4 4 5 6 6 6 7 7 7 8 6 5 6 6 5 5 4 4 3 3 3 4 2 2 2 3 3 3 5 5 5 5
2 2 2 3 2 3 2 2 2 3 3 3 4 5 6 6 6 7 7 7 8 8 7 7 7 5 6 5 5 5 4 4 4 4 2 2 3 3 3 2 3 4 5
1 1 2 2 2 2 2 2 1 2 2 3 4 5 5 5 6 6 7 7 7 7 7 8 7 7 7 5 5 5 4 3 3 3 3 2 2 2 2 1 2 3 4
1 2 2 3 3 3 2 2 2 2 2 2 3 4 5 5 6 6 6 6 6 6 6 7 7 8 8 7 6 6 4 4 3 3 2 2 1 1 2 2 2 2 2
1 2 2 2 2 2 2 2 2 2 2 2 2 2 3 4 5 6 6 6 6 5 5 5 6 7 7 7 6 5 5 5 4 3 3 2 2 2 3 2 2 1 2
2 2 2 2 1 2 2 1 1 1 2 2 3 3 3 3 4 5 5 5 6 6 6 5 5 5 6 6 6 6 6 6 6 5 4 4 4 4 3 2 2 1 3
2 2 1 1 2 2 1 1 2 2 2 2 3 3 4 4 4 5 5 5 5 6 6 6 4 4 5 4 4 5 6 7 7 6 6 6 5 5 4 4 3 3 3
2 2 1 2 2 2 2 2 2 1 2 2 3 3 3 3 4 4 5 4 4 5 5 6 6 5 5 5 5 4 4 4 5 4 5 5 4 4 6 5 4 2 1
3 3 3 2 2 2 2 3 2 2 2 2 3 3 3 3 4 5 4 4 4 5 4 4 5 6 6 6 5 4 3 2 2 3 4 4 4 5 5 3 2 2 2
4 4 3 3 3 3 3 3 2 3 3 2 2 3 4 4 5 5 5 4 4 4 3 4 5 6 7 7 6 6 5 4 2 1 1 0 1 3 4 4 4 4 2
5 3 2 2 3 3 3 2 2 2 2 2 2 2 3 4 4 5 5 4 4 4 3 3 3 5 6 7 7 6 6 4 3 3 2 1 1 1 1 2 2 3 3
4 3 1 1 1 1 2 1 1 2 2 2 1 1 1 2 3 3 4 4 3 3 3 2 2 4 4 5 5 5 5 4 3 2 2 2 1 1 1 1 1 1 2
4 3 2 1 0 1 2 2 2 2 2 2 2 2 1 1 1 2 2 2 3 2 2 3 3 3 3 3 3 5 4 3 3 3 3 2 2 2 1 1 1 1 1
4 3 2 1 1 1 0 1 2 2 2 2 2 2 1 1 1 2 2 2 2 2 2 2 2 2 1 1 2 2 2 3 3 3 3 2 2 2 1 1 2 1 1
3 3 3 1 0 1 1 0 1 2 3 3 3 3 3 3 2 2 3 3 3 3 2 1 1 1 1 1 1 1 2 2 2 3 3 3 2 2 2 2 2 2 2
3 3 2 1 1 1 1 2 3 2 2 2 1 1 2 2 1 2 2 3 3 4 2 2 2 3 3 3 3 2 2 3 3 3 3 3 3 3 2 1 1 2 3
2 2 2 1 1 0 0 0 1 3 3 3 2 1 1 1 1 1 1 2 3 3 1 2 2 3 3 3 3 3 3 3 2 3 3 3 3 3 2 2 2 2 3
2 2 2 1 1 0 0 0 0 0 1 2 3 2 2 1 1 1 2 2 1 1 1 2 3 3 3 3 3 2 2 2 2 3 3 3 3 3 3 3 3 4 4
2 2 1 1 1 0 0 0 0 0 0 1 2 2 2 2 2 2 2 1 1 1 1 2 2 2 2 2 2 2 3 3 3 3 3 3 3 3 3 3 3 5 4
2 3 2 1 0 0 0 0 0 0 0 0 1 1 1 1 1 1 2 1 0 0 1 1 1 1 2 2 2 3 3 3 3 3 3 3 3 3 4 4 4 4 5
1 2 2 1 0 0 0 0 1 1 0 0 1 1 1 1 1 1 1 1 1 1 1 1 1 1 2 2 2 3 3 3 3 3 3 3 3 3 4 4 5 5 4
1 1 1 0 0 0 0 0 0 0 0 0 1 1 2 1 1 1 1 1 1 1 1 1 1 2 2 3 3 3 3 4 4 4 3 3 4 4 4 4 4 4 4
0 0 0 0 0 1 1 0 0 0 0 0 0 1 1 1 1 1 1 1 1 1 1 1 1 2 2 3 4 4 4 5 5 5 4 4 4 4 4 4 5 5 5
0 0 0 0 0 0 0 0 0 0 0 0 0 0 0 0 1 1 1 1 1 2 2 2 2 3 3 3 4 4 5 6 6 6 6 5 5 4 4 5 5 6 6
0 0 0 0 0 0 0 0 1 0 1 1 1 1 1 1 1 1 1 1 1 2 2 2 2 3 4 4 5 5 6 6 6 6 6 5 5 5 5 5 5 5 5
1 0 0 0 0 0 0 1 1 1 1 1 1 1 1 1 1 1 1 1 2 2 2 3 4 4 5 5 5 6 6 6 6 6 6 5 5 4 4 4 5 5 5
Wind_Direction
203 196 180 185 182 174 174 181 191 201 198 198 196 195 189 185 183 184 187 184 189 194 195 195 203 197 193 194 190 192 195 180 209 239 228 215 203 211 227 226 233 236 242
218 189 182 172 160 165 176 186 190 200 203 197 196 194 188 187 187 188 188 189 193 197 200 201 207 200 200 200 197 202 204 195 194 223 232 215 219 210 207 218 248 247 247
221 179 189 175 170 174 178 177 181 200 204 194 189 188 186 187 190 195 193 193 198 202 203 204 208 200 206 207 204 207 207 202 196 204 226 220 220 204 194 239 260 265 262
221 195 205 198 196 192 191 183 187 195 192 188 182 188 190 190 194 198 195 193 199 206 207 208 206 204 206 206 207 205 198 196 192 199 220 221 218 198 186 223 265 266 277
263 229 221 212 199 187 187 187 188 196 200 186 171 172 182 189 197 194 194 196 197 203 206 211 209 208 211 207 206 201 193 196 197 208 218 224 218 205 219 216 243 255 289
268 246 224 204 199 193 199 198 186 194 193 178 178 181 190 206 199 198 198 198 200 204 207 210 214 207 207 204 203 198 194 199 205 210 224 225 229 225 219 212 215 242 263
292 273 235 208 221 221 207 201 203 207 194 187 188 183 195 207 204 204 206 206 203 209 207 205 210 211 205 203 206 205 208 213 210 208 215 223 219 215 201 207 214 229 247
297 281 253 218 220 221 209 211 215 209 203 200 195 194 199 211 202 203 208 206 207 209 207 204 201 203 204 200 197 200 209 217 219 215 213 220 216 206 201 206 207 209 314
296 285 256 228 217 214 222 220 213 199 213 214 204 198 202 218 214 212 209 202 205 206 207 205 200 201 202 192 189 191 201 221 213 199 216 221 212 204 190 165 171 200 261
300 282 252 223 216 218 223 217 208 199 206 209 212 207 211 216 224 217 210 202 202 205 201 201 207 208 202 195 198 195 204 214 182 143 116 196 179 184 193 196 198 211 244
309 292 259 225 217 217 216 214 201 194 181 191 217 229 222 219 218 215 212 204 197 197 200 203 209 206 207 209 212 211 211 197 178 169 180 175 127 139 157 184 202 213 221
322 319 300 259 225 201 177 191 190 177 177 190 203 236 242 224 211 205 206 209 201 192 200 205 206 198 202 209 213 200 185 171 171 172 182 201 198 206 200 163 167 175 209
329 322 325 332 307 203 177 182 180 179 183 201 202 214 253 261 220 202 191 192 199 206 192 187 197 201 198 194 192 182 173 177 181 189 199 213 208 200 170 139 105 97 59
331 326 325 325 326 280 207 185 182 187 194 211 215 214 235 256 238 209 197 184 176 174 166 157 158 149 143 165 180 177 183 191 193 196 193 203 194 189 206 218 230 229 263
329 331 332 328 359 35 10 284 229 221 216 215 216 211 212 225 240 234 208 196 187 184 167 160 172 167 166 178 176 177 182 187 192 190 189 193 198 203 220 228 233 237 239
324 330 335 343 4 69 62 21 4 350 328 311 300 262 269 268 236 227 226 204 186 177 172 176 194 197 194 196 195 198 200 201 198 199 202 202 207 213 221 231 239 226 235
302 309 320 331 333 356 57 85 6 9 15 9 11 5 343 313 186 176 159 162 174 167 173 191 204 207 203 200 203 207 215 210 201 200 205 208 210 213 217 224 231 241 244
307 300 306 302 301 313 322 315 209 341 352 356 356 7 17 53 86 101 110 101 152 174 188 202 211 208 203 200 201 206 209 205 205 211 211 211 213 216 223 225 229 238 247
310 314 307 303 293 279 310 349 350 333 349 355 3 3 19 52 65 58 70 73 173 207 218 221 224 217 212 208 205 205 208 211 212 216 217 218 216 216 230 235 235 239 249
316 318 321 315 299 310 211 239 286 291 2 352 323 333 356 41 71 51 30 35 41 257 231 233 240 231 220 214 209 206 207 209 211 215 219 223 224 221 225 232 238 241 245
314 323 325 336 342 314 197 225 238 230 236 265 292 317 356 48 57 37 14 355 327 297 281 261 249 238 228 218 211 207 209 216 218 216 215 219 221 228 232 234 239 243 247
322 328 340 328 335 355 162 235 258 258 253 308 336 353 14 36 47 18 351 337 335 321 307 285 267 254 239 232 224 216 219 221 222 220 221 221 224 228 232 236 237 239 244
344 327 340 350 7 322 340 7 32 10 356 15 337 345 11 24 18 7 349 340 326 326 316 296 280 277 264 249 235 222 225 229 227 221 222 225 228 229 232 236 237 241 244
346 312 318 5 24 28 351 345 332 306 276 271 300 333 344 347 337 341 342 331 330 326 316 299 283 274 275 273 261 250 241 237 233 225 218 219 226 232 233 236 241 244 246
355 346 23 14 313 304 316 333 330 323 304 294 291 299 312 333 324 318 312 309 315 317 313 302 290 282 278 279 276 267 256 252 247 233 219 215 224 229 231 235 239 246 251
343 336 339 343 320 307 294 299 305 306 294 292 293 291 293 298 304 303 298 296 302 306 304 301 300 299 293 284 282 283 274 263 254 242 226 214 217 227 230 234 238 244 250
Height
1475 1477 1479 1480 1482 1484 1486 1488 1490 1492 1494 1496 1497 1500 1503 1505 1508 1511 1514 1517 1520 1523 1525 1527 1529 1531 1533 1535 1536 1538 1539 1540 1540 1540 1542 1543 1543 1544 1544 1545 1545 1545 1545
1472 1474 1475 1477 1479 1480 1482 1484 1486 1488 1490 1492 1494 1497 1499 1501 1504 1507 1510 1513 1515 1518 1520 1522 1524 1527 1528 1530 1532 1533 1534 1535 1536 1536 1537 1538 1539 1539 1540 1540 1541 1541 1541
1470 1471 1472 1474 1475 1477 1478 1480 1482 1484 1486 1488 1490 1492 1494 1497 1500 1503 1506 1508 1511 1513 1516 1518 1520 1522 1523 1525 1526 1528 1529 1531 1531 1532 1532 1533 1534 1534 1535 1535 1536 1536 1536
1467 1468 1469 1470 1472 1473 1475 1477 1479 1480 1482 1484 1486 1488 1491 1493 1496 1499 1501 1504 1506 1509 1511 1513 1515 1517 1518 1520 1521 1523 1524 1526 1527 1527 1528 1528 1529 1529 1530 1530 1530 1531 1531
1464 1465 1466 1467 1469 1470 1472 1473 1475 1477 1478 1480 1482 1484 1487 1490 1492 1494 1497 1499 1502 1504 1506 1508 1510 1512 1513 1515 1516 1518 1519 1520 1521 1522 1523 1523 1524 1524 1525 1525 1525 1526 1526
1462 1463 1463 1464 1466 1467 1468 1470 1471 1472 1474 1476 1478 1480 1483 1485 1488 1490 1492 1495 1497 1499 1501 1503 1505 1506 1508 1510 1511 1513 1514 1515 1516 1516 1517 1518 1518 1519 1520 1520 1520 1520 1520
1460 1460 1461 1462 1463 1464 1465 1466 1467 1469 1470 1472 1474 1476 1479 1481 1483 1486 1488 1490 1492 1494 1496 1497 1499 1501 1503 1505 1506 1507 1509 1510 1511 1512 1512 1512 1513 1514 1515 1515 1515 1515 1515
1458 1458 1459 1460 1460 1461 1462 1463 1464 1465 1467 1468 1470 1472 1475 1477 1479 1481 1483 1485 1487 1489 1491 1492 1494 1496 1498 1499 1501 1502 1503 1504 1506 1506 1507 1508 1509 1509 1510 1511 1511 1511 1511
1456 1456 1456 1457 1458 1458 1459 1460 1461 1462 1463 1465 1466 1469 1470 1472 1474 1476 1479 1480 1482 1483 1485 1488 1489 1491 1493 1494 1496 1496 1497 1499 1500 1501 1502 1503 1504 1505 1505 1506 1506 1506 1505
1454 1454 1454 1455 1455 1456 1456 1457 1458 1459 1460 1462 1463 1465 1466 1468 1470 1471 1474 1475 1476 1478 1480 1482 1484 1486 1487 1489 1490 1491 1492 1493 1495 1496 1497 1498 1499 1499 1500 1501 1501 1501 1500
1452 1452 1452 1452 1453 1453 1454 1455 1456 1457 1458 1459 1460 1461 1463 1464 1465 1467 1469 1470 1472 1474 1475 1477 1479 1481 1482 1484 1485 1486 1487 1488 1489 1490 1491 1492 1493 1494 1494 1496 1496 1496 1496
1451 1450 1450 1450 1451 1451 1452 1452 1453 1454 1455 1456 1457 1457 1459 1460 1461 1463 1465 1466 1468 1470 1471 1473 1474 1476 1477 1479 1480 1481 1482 1483 1484 1485 1486 1486 1487 1488 1489 1490 1491 1491 1491
1449 1449 1449 1449 1449 1449 1449 1450 1451 1452 1452 1453 1454 1454 1455 1456 1457 1459 1460 1462 1464 1466 1467 1468 1470 1472 1473 1474 1475 1476 1477 1478 1479 1479 1480 1481 1483 1484 1485 1485 1485 1486 1486
1448 1447 1447 1447 1447 1447 1447 1448 1448 1449 1450 1450 1451 1451 1452 1453 1453 1454 1456 1458 1459 1461 1462 1464 1466 1467 1468 1469 1470 1471 1472 1473 1474 1475 1475 1477 1478 1479 1480 1480 1480 1480 1480
1446 1446 1446 1446 1445 1444 1445 1445 1445 1446 1447 1448 1448 1449 1449 1449 1451 1452 1452 1454 1455 1456 1458 1459 1461 1462 1463 1464 1465 1466 1467 1468 1469 1470 1471 1472 1473 1474 1474 1475 1475 1475 1475
1444 1444 1444 1444 1443 1443 1442 1443 1443 1444 1445 1445 1446 1446 1447 1448 1448 1449 1450 1451 1452 1454 1455 1455 1457 1458 1459 1460 1461 1462 1463 1464 1464 1465 1466 1467 1468 1468 1469 1470 1470 1470 1470
1443 1442 1442 1442 1441 1441 1441 1441 1441 1441 1442 1442 1443 1444 1445 1445 1445 1446 1447 1448 1449 1450 1451 1452 1453 1454 1455 1456 1457 1458 1458 1459 1460 1461 1461 1462 1463 1464 1464 1464 1465 1465 1465
1441 1441 1440 1440 1440 1439 1439 1439 1439 1439 1439 1439 1441 1441 1442 1442 1443 1443 1444 1445 1446 1447 1448 1449 1449 1450 1451 1452 1453 1453 1454 1455 1456 1456 1457 1458 1459 1459 1459 1459 1460 1460 1460
1440 1439 1439 1439 1438 1438 1438 1437 1437 1438 1437 1437 1438 1439 1440 1440 1441 1441 1442 1442 1443 1444 1445 1445 1446 1447 1447 1448 1449 1449 1450 1451 1452 1452 1453 1453 1454 1454 1454 1455 1455 1455 1455
1438 1438 1438 1437 1437 1436 1436 1436 1436 1436 1436 1436 1436 1437 1437 1437 1438 1439 1439 1440 1441 1441 1442 1442 1443 1443 1444 1444 1445 1446 1446 1447 1447 1448 1448 1449 1449 1450 1450 1450 1450 1450 1450
1436 1436 1436 1435 1435 1435 1435 1434 1435 1435 1435 1435 1435 1436 1436 1436 1436 1436 1436 1437 1438 1438 1439 1439 1439 1440 1440 1441 1441 1441 1442 1442 1443 1443 1444 1444 1445 1445 1445 1446 1445 1445 1445
1435 1434 1434 1434 1434 1433 1433 1433 1433 1433 1433 1433 1433 1434 1434 1434 1434 1434 1434 1435 1436 1436 1436 1436 1436 1436 1437 1437 1437 1437 1438 1438 1439 1439 1439 1440 1440 1440 1441 1441 1441 1440 1440
1433 1433 1432 1432 1432 1432 1432 1432 1432 1431 1431 1431 1431 1431 1431 1432 1432 1432 1433 1433 1433 1433 1433 1434 1433 1433 1433 1433 1433 1434 1434 1434 1434 1435 1435 1435 1435 1435 1435 1435 1435 1435 1435
1432 1431 1431 1431 1431 1431 1430 1430 1430 1430 1430 1430 1430 1429 1430 1430 1430 1430 1430 1431 1431 1431 1431 1430 1430 1430 1429 1429 1429 1429 1429 1429 1430 1430 1430 1430 1430 1430 1430 1430 1430 1430 1430
1430 1430 1429 1429 1429 1429 1429 1429 1428 1428 1428 1428 1428 1428 1428 1428 1428 1428 1428 1428 1428 1428 1427 1427 1427 1426 1426 1425 1425 1425 1425 1425 1425 1425 1425 1425 1425 1425 1425 1425 1425 1425 1425
1429 1428 1428 1427 1427 1427 1427 1426 1426 1426 1426 1426 1426 1426 1426 1426 1425 1425 1425 1425 1425 1425 1424 1424 1423 1423 1422 1421 1421 1420 1420 1420 1420 1420 1420 1420 1420 1420 1420 1420 1420 1420 1420